Simultaneous Nadir Overpasses (SNOs) Predictions

Prediction of SNOs between AQUA and GOES-15 Satellite Orbit:

Table of predicted SNOs for the next 14.0 days since TLE Epoch: 8/31/2012
Index Date Time (AQUA) AQUA Lat,Lon GOES-15 Lat,Lon Distance(km) Time Diff (sec)
1 09/01/2012 22:28:37 -0.24,-133.31 -0.39,-134.20 101.26 80
2 09/02/2012 10:49:53 1.28,-138.47 0.38,-134.21 484.10 80
3 09/03/2012 22:16:25 0.42,-130.35 -0.40,-134.13 430.16 80
4 09/04/2012 10:37:40 0.68,-135.51 0.38,-134.14 155.44 80
5 09/06/2012 10:25:27 0.07,-132.54 0.38,-134.06 172.69 80
6 09/06/2012 22:46:51 -1.17,-137.73 -0.37,-134.01 423.67 80
7 09/08/2012 22:34:38 -0.54,-134.77 -0.37,-133.93 96.17 80
8 09/10/2012 22:22:24 0.05,-131.80 -0.36,-133.84 230.80 80
9 09/11/2012 10:43:40 0.99,-136.97 0.34,-133.85 354.49 80
10 09/13/2012 10:31:26 0.38,-134.00 0.34,-133.75 28.07 80




NCC Satellite Simultaneous Nadir Overpasses (SNOs) Prediction Service
